New Bedford, MA

6:59 AM EDT on May 26, 2017 (GMT -0400)
New Bedford Regional

Weather History for KEWB - February, 2013

Change the Weather History Date:

Saturday, February 23, 2013

  Actual Average Record
Temperature  
Mean Temperature 34 °F -  
Max Temperature 39 °F 42 °F 61 °F (2017)
Min Temperature 30 °F 29 °F 3 °F (1972)
Degree Days  
Heating Degree Days 30    
Moisture  
Dew Point 30 °F    
Average Humidity 82    
Maximum Humidity 93    
Minimum Humidity 67    
Precipitation  
Precipitation 0.28 in - - ()
Sea Level Pressure  
Sea Level Pressure 30.12 in    
Wind  
Wind Speed 4 mph (East)    
Max Wind Speed 14 mph    
Max Gust Speed 21 mph    
Visibility 8 miles    
Events Rain , Snow    
Averages and records for this station are not official NWS values.
T = Trace of Precipitation, MM = Missing Value Source: NWS Daily Summary

Daily Weather History Graph

Daily Weather History Graph

Search for Another Location

Airport or City:

Trip Planner

Search our weather history database for the weather conditions in past years. The results will help you decide how hot, cold, wet, or windy it might be!

Date:

Astronomy

Feb. 23, 2013 Rise Set
Actual Time 6:27 AM EST 5:27 PM EST
Civil Twilight 5:59 AM EST 5:55 PM EST
Nautical Twilight 5:27 AM EST 6:27 PM EST
Astronomical Twilight 4:55 AM EST 6:59 PM EST
Moon 3:33 PM EST (2/23) 4:49 AM EST (2/23)
Length of Visible Light 11h 56m
Length of Day
10h 59m
Waxing Gibbous, 95% of the Moon is Illuminated
Feb 23
Waxing Gibbous
Feb 25
Full
Mar 4
Last Quarter
Mar 11
New
Mar 19
First Quarter

Hourly Weather History & Observations

Time (EST) Temp. Windchill Dew Point Humidity Pressure Visibility Wind Dir Wind Speed Gust Speed Precip Events Conditions
12:53 AM 30.9 °F - 26.1 °F 82% 30.32 in 10.0 mi Calm Calm - N/A   Overcast
1:53 AM 30.9 °F - 26.1 °F 82% 30.32 in 10.0 mi Calm Calm - N/A   Overcast
2:53 AM 30.9 °F - 26.1 °F 82% 30.30 in 10.0 mi Calm Calm - N/A   Overcast
3:53 AM 32.0 °F - 26.1 °F 79% 30.27 in 10.0 mi Calm Calm - N/A   Overcast
4:53 AM 32.0 °F - 26.1 °F 79% 30.27 in 10.0 mi Calm Calm - N/A   Overcast
5:53 AM 32.0 °F 28.7 °F 26.1 °F 79% 30.26 in 10.0 mi ESE 3.5 mph - N/A   Overcast
6:53 AM 33.1 °F 30.0 °F 28.0 °F 82% 30.25 in 10.0 mi ESE 3.5 mph - N/A   Overcast
7:53 AM 35.1 °F 31.0 °F 28.9 °F 78% 30.25 in 10.0 mi ESE 4.6 mph - N/A   Overcast
8:53 AM 36.0 °F 29.0 °F 30.0 °F 79% 30.24 in 10.0 mi SE 9.2 mph - N/A   Overcast
9:53 AM 37.0 °F 29.3 °F 28.9 °F 73% 30.22 in 10.0 mi ESE 11.5 mph - N/A   Overcast
10:53 AM 37.9 °F 31.5 °F 28.9 °F 70% 30.20 in 10.0 mi ESE 9.2 mph 17.3 mph N/A   Overcast
11:53 AM 39.0 °F 31.4 °F 28.9 °F 67% 30.17 in 10.0 mi ESE 12.7 mph - N/A   Overcast
12:53 PM 37.9 °F 29.6 °F 28.9 °F 70% 30.15 in 10.0 mi SE 13.8 mph 20.7 mph N/A   Overcast
1:53 PM 37.9 °F 30.5 °F 30.0 °F 73% 30.13 in 10.0 mi ESE 11.5 mph - N/A   Overcast
2:53 PM 37.9 °F 32.1 °F 28.9 °F 70% 30.12 in 10.0 mi ESE 8.1 mph - N/A   Overcast
3:18 PM 37.4 °F 31.4 °F 30.2 °F 75% 30.11 in 10.0 mi ESE 8.1 mph - N/A   Overcast
3:53 PM 36.0 °F 28.5 °F 30.0 °F 79% 30.09 in 4.0 mi ESE 10.4 mph - 0.00 in Snow Light Snow
4:53 PM 35.1 °F 30.1 °F 30.9 °F 85% 30.07 in 10.0 mi East 5.8 mph - 0.00 in   Overcast
5:53 PM 35.1 °F 31.0 °F 30.9 °F 85% 30.05 in 7.0 mi East 4.6 mph - 0.01 in Rain Light Rain
6:53 PM 34.0 °F 27.2 °F 32.0 °F 92% 30.02 in 5.0 mi East 8.1 mph - 0.07 in Rain Light Rain
7:48 PM 35.6 °F 29.9 °F 32.0 °F 87% 30.00 in 2.5 mi ENE 6.9 mph - 0.10 in Rain Heavy Rain
7:50 PM 35.6 °F 30.7 °F 33.8 °F 93% 30.00 in 3.0 mi ENE 5.8 mph - 0.10 in Rain Rain
7:53 PM 35.1 °F 30.1 °F 33.1 °F 92% 30.00 in 3.0 mi ENE 5.8 mph - 0.10 in Rain Light Rain
8:06 PM 35.6 °F 29.9 °F 33.8 °F 93% 29.99 in 4.0 mi ENE 6.9 mph - 0.02 in Rain Light Rain
8:53 PM 36.0 °F 32.1 °F 34.0 °F 93% 29.99 in 5.0 mi ENE 4.6 mph - 0.07 in Rain Light Rain
9:53 PM 36.0 °F 31.1 °F 34.0 °F 93% 29.94 in 5.0 mi ENE 5.8 mph - 0.02 in Rain Light Rain
10:53 PM 37.0 °F 31.6 °F 35.1 °F 93% 29.89 in 4.0 mi NE 6.9 mph - 0.00 in Rain Light Rain
11:53 PM 37.0 °F 31.6 °F 35.1 °F 93% 29.86 in 2.5 mi NE 6.9 mph - 0.01 in Rain Light Rain